Presure
161 149 134 128 139 124 139 126 137 122 145 134 130 135 124 149 145 133 131 132 137 128 138 138 139 136 140 130 133 120 141 149 168 141 164 148 171 150 177 154 222 115 199 184
132 154 143 138 131 122 139 140 123 124 131 121 145 133 156 142 143 136 130 139 139 134 134 141 141 133 136 133 132 140 136 143 133 146 138 159 152 132 151 159 151 165 197 156
125 168 157 146 136 125 127 140 143 128 128 112 137 143 132 141 131 134 135 132 135 141 134 138 139 131 127 141 134 127 135 123 135 131 133 133 148 158 140 138 143 150 171 141
131 131 144 150 140 134 129 133 143 148 126 127 131 132 141 141 146 138 127 133 132 134 143 129 135 133 138 132 135 139 142 135 136 140 136 127 141 150 136 141 150 140 151 168
146 130 128 157 146 136 137 133 152 158 129 135 142 170 157 130 144 132 136 139 137 132 130 138 128 132 127 145 145 140 139 137 132 127 132 135 144 134 139 154 141 147 144 150
238 139 133 145 157 142 138 132 127 111 125 135 150 140 157 158 145 137 126 127 139 126 144 139 131 133 124 123 134 133 133 147 139 133 130 128 127 142 135 148 151 133 149 137
244 187 125 132 156 150 143 138 137 128 134 171 140 138 173 173 152 151 141 132 154 141 140 140 132 127 152 128 121 129 131 127 132 139 150 136 128 128 140 132 104 133 129 137
244 239 146 126 128 132 149 143 130 117 125 139 136 142 168 175 143 149 142 161 171 152 146 169 163 146 144 154 132 130 120 134 159 142 133 122 137 134 135 135 124 141 130 164
239 241 143 142 121 163 150 148 142 126 132 137 116 123 170 139 154 177 171 133 142 154 151 144 131 127 138 135 141 136 143 143 154 137 127 133 131 137 141 144 137 140 155 105
235 241 222 147 139 125 163 143 147 139 139 129 132 136 122 164 130 182 155 155 147 147 130 120 136 125 125 158 129 130 138 124 144 138 131 128 121 124 125 129 130 134 123 126
227 237 245 152 143 139 140 117 147 148 144 132 141 115 164 147 156 140 131 125 125 117 114 132 123 129 122 129 124 120 125 150 137 141 142 126 119 121 128 127 123 132 144 123
230 233 241 236 145 146 136 129 108 151 145 144 157 164 130 125 123 132 136 115 120 123 120 123 109 123 119 122 121 133 117 119 132 123 132 136 113 119 125 118 140 123 126 133
234 225 230 233 209 140 142 157 127 143 121 129 156 145 161 162 157 123 103 131 127 119 119 110 111 120 128 109 133 149 142 120 131 127 123 137 135 131 117 118 122 130 134 118
234 222 229 227 240 196 143 152 136 133 153 144 128 134 151 146 137 135 130 122 130 127 127 117 121 115 135 118 118 195 123 128 127 126 136 127 118 135 137 123 121 130 124 122
233 225 221 228 236 230 186 143 149 143 134 139 139 136 149 133 131 160 147 137 140 129 117 121 128 128 135 133 138 129 132 126 139 131 120 132 134 121 126 127 132 132 138 134
250 233 220 224 230 235 86 178 143 146 148 166 156 143 130 126 125 120 129 151 144 141 133 140 124 120 121 127 132 131 144 126 141 136 125 117 131 126 116 124 131 122 132 141
251 251 242 221 220 231 225 220 169 149 141 156 171 150 142 135 125 118 132 118 140 144 142 134 120 123 131 140 137 138 134 145 129 132 122 131 138 138 126 117 123 130 118 120
239 250 247 256 214 222 234 240 209 171 150 156 148 142 152 154 140 130 126 129 136 138 149 166 142 130 120 125 130 133 124 137 128 129 137 135 134 118 123 130 124 128 137 116
260 243 249 236 252 217 221 228 231 208 173 157 156 154 153 145 140 136 128 127 133 132 143 152 144 147 170 142 133 131 118 137 132 129 137 137 143 144 133 126 133 134 134 125
275 241 245 252 248 234 104 221 229 228 224 117 169 160 151 144 148 88 102 157 137 124 138 138 159 130 192 163 131 145 141 141 146 154 131 133 136 140 134 148 149 138 144 134
325 282 252 238 250 244 232 224 218 222 225 224 166 175 158 102 133 117 146 152 147 146 159 107 121 158 131 146 150 173 139 151 149 142 150 151 135 142 144 140 145 150 147 142
293 298 258 234 240 237 239 227 208 219 230 225 225 221 237 169 164 162 165 142 148 157 142 125 149 136 165 122 160 167 176 147 137 176 136 147 139 133 144 162 137 136 138 142
287 282 276 229 221 229 233 236 237 221 218 219 230 244 210 199 177 193 174 207 169 149 148 169 162 157 171 158 149 134 133 152 203 142 160 153 135 139 139 150 160 147 143 144
244 284 289 240 222 231 239 241 237 245 241 234 240 230 229 218 221 204 196 212 169 180 173 169 166 156 151 126 133 130 150 121 177 127 140 163 144 145 159 154 155 162 153 138
325 321 278 270 232 229 226 235 236 241 239 238 247 247 269 243 228 223 211 224 217 184 181 181 170 166 162 155 147 104 144 173 144 131 131 137 130 155 149 138 148 134 134 145
262 290 354 297 269 233 232 231 233 232 232 239 244 248 256 249 250 256 244 250 239 233 213 221 223 192 181 175 170 169 168 171 171 166 99 153 136 155 133 137 159 164 163 128
Wind_Speed
66 57 54 52 58 43 51 44 44 43 51 42 39 38 34 30 28 23 19 16 13 9 5 4 6 9 13 9 11 15 18 28 39 26 37 33 49 40 56 54 52 25 43 43
45 65 62 58 50 45 55 53 41 43 44 33 43 36 34 33 31 27 24 20 16 12 8 5 5 3 8 8 9 11 13 21 17 29 24 37 35 22 47 52 50 56 49 42
52 77 68 59 58 55 53 56 52 51 54 30 43 40 41 39 36 30 28 21 18 17 12 9 5 3 1 10 6 9 11 13 17 18 21 20 32 44 29 31 39 51 49 35
58 52 58 64 61 59 56 54 57 55 60 57 46 44 44 42 40 35 29 26 24 19 17 9 8 4 3 0 5 6 8 11 16 19 19 19 26 31 23 32 41 35 47 49
70 55 51 71 68 62 61 51 57 59 66 59 61 59 54 38 44 39 34 32 28 20 17 17 11 8 5 2 8 3 6 9 10 9 17 19 22 19 26 35 32 38 38 42
77 60 55 64 72 66 64 62 57 43 62 58 66 55 55 50 47 43 33 29 30 23 26 21 18 10 7 6 3 1 4 8 9 9 11 12 13 19 20 28 32 21 34 32
79 81 61 63 70 71 70 62 60 62 70 71 45 55 57 58 52 45 42 35 34 34 31 27 19 11 13 10 6 7 5 2 5 8 12 11 12 12 16 16 11 14 18 25
80 88 74 60 60 66 76 70 66 41 62 74 60 54 61 65 46 43 44 38 38 37 33 25 20 19 15 14 13 12 8 2 6 8 6 7 12 14 15 14 9 20 17 29
81 87 70 69 55 90 85 77 80 54 70 56 35 26 72 49 48 54 47 36 39 36 30 30 21 17 17 14 16 14 11 5 6 5 3 2 6 11 14 18 18 22 23 7
83 81 89 79 71 62 88 71 77 74 77 49 50 52 34 57 40 61 48 44 39 34 28 26 23 23 24 21 19 20 18 15 6 7 8 4 13 12 9 10 14 15 10 14
69 79 79 84 77 75 75 54 79 80 80 57 61 35 56 45 42 43 39 35 34 30 26 31 29 28 26 24 26 14 17 18 14 9 9 12 16 18 14 13 15 12 18 10
71 74 75 84 82 80 78 70 38 88 80 78 80 84 46 43 39 41 44 25 32 35 34 35 25 32 29 33 36 30 23 24 23 20 15 15 14 18 19 14 13 14 11 14
75 80 78 80 99 79 85 96 72 85 44 58 87 66 64 67 61 39 25 45 43 39 40 36 31 37 43 24 41 46 37 27 26 27 24 20 21 26 24 23 22 17 17 12
77 83 83 87 84 104 84 89 79 79 94 79 54 49 69 51 49 52 49 48 51 50 53 49 49 42 48 40 37 42 35 33 31 33 33 29 29 30 28 29 27 25 19 20
79 87 90 90 87 97 107 88 95 87 79 74 68 56 63 54 53 75 66 61 63 56 50 52 54 56 52 40 38 53 49 37 43 39 35 36 34 37 33 33 34 33 28 26
73 86 91 86 87 86 16 113 82 90 99 112 89 67 52 49 55 47 54 73 68 65 58 57 61 60 62 59 67 53 57 40 49 48 40 39 43 37 34 35 37 33 38 38
69 71 79 89 90 88 93 102 110 101 95 103 107 66 63 61 56 47 63 50 67 67 70 68 64 67 71 71 71 67 56 65 53 53 45 49 47 47 43 36 36 41 34 36
70 70 76 75 95 96 90 91 110 114 104 100 78 73 85 87 72 65 59 62 65 66 74 85 76 75 55 60 71 69 48 67 53 54 59 54 48 44 40 45 42 43 49 38
63 72 72 83 80 96 96 92 96 112 117 99 94 92 94 85 81 79 72 67 72 71 78 84 79 79 95 84 73 72 40 73 66 58 64 63 65 66 52 49 49 49 51 48
48 62 70 72 78 90 29 96 94 95 105 53 113 106 95 85 92 28 44 108 78 62 73 68 93 71 107 90 74 85 84 82 80 84 63 65 68 72 63 74 75 59 63 60
20 44 69 67 72 78 90 93 98 99 99 102 70 117 99 42 82 57 112 116 98 88 98 48 61 96 70 78 81 94 81 88 85 79 86 85 76 81 79 75 75 76 74 70
19 19 57 63 65 73 80 94 103 100 94 97 99 103 86 116 127 60 126 85 90 96 79 63 86 75 100 71 92 96 101 78 80 97 85 86 83 74 79 84 69 69 70 74
25 34 52 64 67 72 76 79 84 95 99 101 94 94 117 121 128 134 123 100 124 92 94 118 102 97 114 91 75 79 76 80 102 84 85 84 74 83 83 85 85 82 81 80
19 25 35 66 68 74 79 82 83 80 84 96 89 101 102 111 118 128 136 128 117 128 126 118 113 101 91 74 76 75 88 73 106 76 85 96 85 83 87 82 83 84 82 75
1 25 39 52 71 78 77 80 80 82 84 87 84 81 78 100 111 123 129 123 127 129 128 130 121 119 114 105 93 40 90 111 87 79 82 83 81 89 85 84 83 75 75 80
5 3 17 44 57 74 78 82 83 82 81 82 85 84 82 86 91 100 112 109 121 124 127 123 127 134 131 128 124 120 118 118 116 110 37 95 85 93 82 83 93 95 94 70
Wind_Direction
213 212 210 209 207 209 206 213 199 224 207 229 211 211 213 232 206 219 223 223 211 249 209 142 93 87 76 38 40 30 67 66 59 68 65 72 60 70 58 65 55 51 60 64
217 210 211 210 210 210 209 209 214 217 223 222 234 209 235 217 211 211 225 211 217 221 225 192 139 101 95 72 36 48 47 65 56 61 62 67 66 45 70 63 64 54 56 58
219 211 211 209 208 213 214 210 203 206 219 227 221 217 212 218 216 210 215 218 221 220 220 204 190 183 318 92 55 43 64 57 61 51 56 49 62 66 64 66 67 62 58 52
218 217 210 209 212 213 215 216 208 203 226 232 226 214 214 217 215 213 221 214 219 214 217 230 216 210 161 81 75 19 53 59 61 53 55 59 52 62 58 68 61 66 57 52
217 214 212 208 210 213 214 220 209 204 229 233 230 223 222 217 215 219 209 211 213 210 217 214 235 221 238 159 119 39 26 42 56 41 46 44 46 45 54 64 61 61 65 59
202 214 214 213 209 211 213 215 215 236 233 230 227 227 227 226 217 214 215 221 214 223 215 210 227 212 241 267 274 320 13 17 23 47 46 34 42 53 50 67 68 56 56 59
199 207 213 213 209 211 215 216 218 224 226 219 228 238 223 227 217 210 207 216 215 213 212 208 223 231 232 240 278 287 284 0 40 28 48 27 11 29 48 40 50 21 33 48
199 200 210 214 209 216 215 213 216 212 235 231 238 240 228 221 219 210 208 223 223 206 209 222 213 199 206 204 242 275 284 313 66 81 29 351 14 16 13 21 63 42 32 66
200 203 215 215 223 208 211 211 215 226 227 235 212 213 230 224 222 225 226 214 213 205 203 207 223 236 219 229 229 244 244 211 91 133 256 28 4 13 14 359 7 19 39 79
203 203 203 213 216 227 212 217 216 219 227 239 228 226 207 227 216 228 219 202 210 215 224 247 223 236 246 239 241 247 266 274 162 183 225 239 291 293 314 338 349 358 35 34
207 205 203 214 213 217 220 229 218 220 225 232 237 233 225 227 228 216 221 221 221 229 236 230 241 233 253 251 249 248 255 250 237 198 226 245 283 296 299 303 317 338 343 2
205 208 208 207 219 215 218 227 233 224 226 231 231 232 217 220 228 218 215 238 236 233 237 240 242 244 245 248 250 244 234 249 252 263 247 237 275 278 281 294 297 301 317 327
204 204 209 208 205 218 214 214 226 225 227 237 231 232 236 235 230 225 213 232 232 241 241 250 252 248 241 250 247 254 249 243 251 251 256 243 253 256 272 280 284 290 290 286
205 205 206 208 209 209 218 215 225 233 228 232 233 229 225 229 232 231 227 228 231 227 235 242 245 250 242 251 253 237 253 247 247 255 253 246 265 260 262 266 275 280 279 290
208 204 208 207 208 209 209 221 222 227 237 235 231 230 234 225 227 231 234 233 230 230 238 241 241 246 243 233 242 246 246 248 250 247 257 255 251 260 262 263 271 276 277 269
212 210 210 208 211 210 209 212 228 228 232 226 231 229 228 227 230 228 233 236 236 233 233 229 243 247 250 247 251 256 248 258 252 253 246 258 254 247 262 262 268 273 280 283
213 212 212 213 212 211 213 211 216 226 236 233 226 235 236 235 238 235 235 236 237 238 231 228 237 246 248 246 253 255 248 253 251 251 248 245 248 254 253 265 265 265 275 276
215 213 213 213 214 214 214 217 214 219 233 235 236 236 234 238 238 242 243 238 237 237 241 241 230 234 253 251 251 254 250 252 251 254 260 256 251 255 259 252 255 257 262 272
211 217 217 214 213 217 216 217 217 216 222 225 235 233 232 237 240 240 242 240 239 236 241 239 238 238 243 237 246 251 254 255 255 256 260 262 263 264 262 256 259 261 265 262
219 216 217 220 215 216 230 218 220 219 221 226 226 230 233 234 238 230 229 242 242 238 239 238 245 238 246 245 251 240 247 251 250 249 261 262 263 265 264 265 265 267 267 266
217 210 210 214 217 216 218 217 221 222 224 222 221 226 230 243 236 232 240 243 243 242 242 252 245 246 245 240 242 244 247 243 246 253 252 253 259 259 260 262 264 264 265 266
194 193 208 209 214 219 220 220 221 224 224 225 222 223 224 226 233 235 229 245 242 239 244 244 240 241 247 245 249 252 253 253 246 251 252 255 257 259 259 258 260 262 263 263
199 211 202 206 210 217 220 223 225 224 227 229 224 221 223 223 230 234 235 238 238 247 247 243 247 248 247 250 244 245 248 241 245 245 248 244 260 259 260 255 256 257 260 260
198 222 207 210 215 220 221 224 224 224 227 230 227 230 222 228 225 230 237 235 242 240 245 247 248 251 253 250 248 248 252 257 253 259 248 257 249 251 252 263 255 260 261 264
260 226 219 218 218 222 228 231 230 231 228 232 232 229 228 226 227 233 237 236 238 241 243 245 248 251 252 254 252 268 250 251 250 253 254 254 259 259 257 257 259 263 265 260
305 232 226 218 226 224 228 233 238 237 239 237 239 238 234 229 232 235 235 238 238 241 241 244 244 246 248 249 251 254 256 257 256 256 258 253 257 254 257 261 257 259 259 267